Time,TemperatureF,DewpointF,PressureIn,WindDirection,WindDirectionDegrees,WindSpeedMPH,WindSpeedGustMPH,Humidity,HourlyPrecipIn,Conditions,Clouds,dailyrainin,SoftwareType,DateUTC
2013-03-09 00:00:00,46.1,39.0,30.01,South,180,0.0,4.0,76,0.00,,,0.00,WUHU21623XXSP,2013-03-09 08:00:00,
2013-03-09 00:05:00,46.1,39.0,30.02,South,180,0.0,4.0,76,0.00,,,0.00,WUHU21623XXSP,2013-03-09 08:05:00,
2013-03-09 00:10:00,46.1,39.3,30.02,SSE,157,0.0,5.0,77,0.00,,,0.00,WUHU21623XXSP,2013-03-09 08:10:00,
2013-03-09 00:15:00,45.9,39.1,30.02,SSE,157,0.0,5.0,77,0.00,,,0.00,WUHU21623XXSP,2013-03-09 08:15:00,
2013-03-09 00:20:00,45.8,39.0,30.03,SSE,157,0.0,3.3,77,0.00,,,0.00,WUHU21623XXSP,2013-03-09 08:20:00,
2013-03-09 00:25:00,45.6,38.9,30.02,SE,135,0.0,7.3,77,0.00,,,0.00,WUHU21623XXSP,2013-03-09 08:25:00,
2013-03-09 00:30:00,45.6,39.2,30.03,ENE,67,3.3,7.3,78,0.00,,,0.00,WUHU21623XXSP,2013-03-09 08:30:00,
2013-03-09 00:35:00,45.6,38.9,30.03,ENE,67,0.0,7.8,77,0.00,,,0.00,WUHU21623XXSP,2013-03-09 08:35:00,
2013-03-09 00:40:00,45.2,38.8,30.04,ENE,67,0.0,7.8,78,0.00,,,0.00,WUHU21623XXSP,2013-03-09 08:40:00,
2013-03-09 00:45:00,45.2,38.8,30.04,ENE,67,4.0,11.8,78,0.00,,,0.00,WUHU21623XXSP,2013-03-09 08:45:00,
2013-03-09 00:50:00,45.2,38.8,30.04,East,90,0.0,11.8,78,0.00,,,0.00,WUHU21623XXSP,2013-03-09 08:50:00,
2013-03-09 00:55:00,45.2,38.8,30.04,East,90,0.0,2.8,78,0.00,,,0.00,WUHU21623XXSP,2013-03-09 08:55:00,
2013-03-09 01:00:00,45.2,38.8,30.05,East,90,0.0,19.5,78,0.00,,,0.00,WUHU21623XXSP,2013-03-09 09:00:00,
2013-03-09 01:05:00,45.2,38.8,30.05,East,90,0.0,19.5,78,0.00,,,0.00,WUHU21623XXSP,2013-03-09 09:05:00,
2013-03-09 01:10:00,45.0,38.9,30.05,SSE,157,0.0,2.8,79,0.00,,,0.00,WUHU21623XXSP,2013-03-09 09:10:00,
2013-03-09 01:16:00,45.0,38.9,30.05,SSE,157,0.0,2.8,79,0.00,,,0.00,WUHU21623XXSP,2013-03-09 09:16:00,
2013-03-09 01:21:00,45.0,38.9,30.05,South,180,0.0,6.8,79,0.00,,,0.00,WUHU21623XXSP,2013-03-09 09:21:00,
2013-03-09 01:26:00,45.0,38.9,30.05,South,180,0.0,6.8,79,0.00,,,0.00,WUHU21623XXSP,2013-03-09 09:26:00,
2013-03-09 01:31:00,45.0,38.9,30.06,SSE,157,0.0,3.3,79,0.00,,,0.00,WUHU21623XXSP,2013-03-09 09:31:00,
2013-03-09 01:36:00,45.0,38.9,30.05,ESE,112,0.0,0.0,79,0.00,,,0.00,WUHU21623XXSP,2013-03-09 09:36:00,
2013-03-09 01:41:00,45.0,38.9,30.06,NE,45,0.0,3.3,79,0.00,,,0.00,WUHU21623XXSP,2013-03-09 09:41:00,
2013-03-09 01:46:00,45.0,38.9,30.06,ENE,67,0.0,5.5,79,0.00,,,0.00,WUHU21623XXSP,2013-03-09 09:46:00,
2013-03-09 01:51:00,44.7,38.6,30.07,ENE,67,0.0,5.5,79,0.00,,,0.00,WUHU21623XXSP,2013-03-09 09:51:00,
2013-03-09 01:56:00,44.7,38.6,30.07,ENE,67,0.0,5.5,79,0.00,,,0.00,WUHU21623XXSP,2013-03-09 09:56:00,
2013-03-09 02:01:00,44.7,38.6,30.07,ENE,67,0.0,5.5,79,0.00,,,0.00,WUHU21623XXSP,2013-03-09 10:01:00,
2013-03-09 02:10:00,44.7,38.6,30.07,ENE,67,0.0,0.0,79,0.00,,,0.00,WUHU21623XXSP,2013-03-09 10:10:00,
2013-03-09 02:15:00,44.5,38.7,30.07,ENE,67,0.0,0.0,80,0.00,,,0.00,WUHU21623XXSP,2013-03-09 10:15:00,
2013-03-09 02:20:00,44.7,38.6,30.07,ENE,67,0.0,4.0,79,0.00,,,0.00,WUHU21623XXSP,2013-03-09 10:20:00,
2013-03-09 02:25:00,44.7,38.6,30.07,NE,45,1.8,5.0,79,0.00,,,0.00,WUHU21623XXSP,2013-03-09 10:25:00,
2013-03-09 02:30:00,44.7,38.6,30.08,ENE,67,0.0,7.3,79,0.00,,,0.00,WUHU21623XXSP,2013-03-09 10:30:00,
2013-03-09 02:35:00,44.7,38.6,30.08,ENE,67,0.0,7.3,79,0.00,,,0.00,WUHU21623XXSP,2013-03-09 10:35:00,
2013-03-09 02:40:00,44.7,38.9,30.08,ENE,67,0.0,5.0,80,0.00,,,0.00,WUHU21623XXSP,2013-03-09 10:40:00,
2013-03-09 02:45:00,44.5,38.4,30.08,ENE,67,3.3,5.0,79,0.00,,,0.00,WUHU21623XXSP,2013-03-09 10:45:00,
2013-03-09 02:50:00,44.3,38.5,30.08,ENE,67,0.0,5.0,80,0.00,,,0.00,WUHU21623XXSP,2013-03-09 10:50:00,
2013-03-09 02:55:00,44.3,38.5,30.08,ENE,67,0.0,0.0,80,0.00,,,0.00,WUHU21623XXSP,2013-03-09 10:55:00,
2013-03-09 03:00:00,44.5,38.7,30.08,ENE,67,0.0,0.0,80,0.00,,,0.00,WUHU21623XXSP,2013-03-09 11:00:00,
2013-03-09 03:05:00,44.3,38.5,30.08,ENE,67,0.0,0.0,80,0.00,,,0.00,WUHU21623XXSP,2013-03-09 11:05:00,
2013-03-09 03:10:00,44.3,38.5,30.09,ENE,67,0.0,0.0,80,0.00,,,0.00,WUHU21623XXSP,2013-03-09 11:10:00,
2013-03-09 03:15:00,44.1,38.3,30.09,ENE,67,0.0,0.0,80,0.00,,,0.00,WUHU21623XXSP,2013-03-09 11:15:00,
2013-03-09 03:20:00,44.1,38.3,30.09,NE,45,0.0,5.5,80,0.00,,,0.00,WUHU21623XXSP,2013-03-09 11:20:00,
2013-03-09 03:25:00,44.1,38.3,30.10,ENE,67,4.0,5.5,80,0.00,,,0.00,WUHU21623XXSP,2013-03-09 11:25:00,
2013-03-09 03:30:00,44.1,38.3,30.10,East,90,3.3,11.8,80,0.00,,,0.00,WUHU21623XXSP,2013-03-09 11:30:00,
2013-03-09 03:35:00,44.1,38.3,30.10,NE,45,4.0,11.8,80,0.00,,,0.00,WUHU21623XXSP,2013-03-09 11:35:00,
2013-03-09 03:40:00,44.1,38.3,30.10,ENE,67,4.0,10.0,80,0.00,,,0.00,WUHU21623XXSP,2013-03-09 11:40:00,
2013-03-09 03:45:00,44.0,38.3,30.10,NE,45,0.0,10.0,80,0.00,,,0.00,WUHU21623XXSP,2013-03-09 11:45:00,
2013-03-09 03:50:00,44.0,38.6,30.10,East,90,0.0,6.3,81,0.00,,,0.00,WUHU21623XXSP,2013-03-09 11:50:00,
2013-03-09 03:55:00,43.8,38.4,30.10,ENE,67,0.0,4.0,81,0.00,,,0.00,WUHU21623XXSP,2013-03-09 11:55:00,
2013-03-09 04:00:00,43.8,38.4,30.11,ENE,67,3.3,4.0,81,0.00,,,0.00,WUHU21623XXSP,2013-03-09 12:00:00,
2013-03-09 04:05:00,44.0,38.6,30.11,NE,45,0.0,4.0,81,0.00,,,0.00,WUHU21623XXSP,2013-03-09 12:05:00,
2013-03-09 04:10:00,44.0,38.6,30.11,NE,45,0.0,0.0,81,0.00,,,0.00,WUHU21623XXSP,2013-03-09 12:10:00,
2013-03-09 04:15:00,44.0,38.3,30.11,NE,45,0.0,0.0,80,0.00,,,0.00,WUHU21623XXSP,2013-03-09 12:15:00,
2013-03-09 04:20:00,43.8,38.1,30.12,ENE,67,0.0,0.0,80,0.00,,,0.00,WUHU21623XXSP,2013-03-09 12:20:00,
2013-03-09 04:25:00,43.6,38.2,30.12,ENE,67,0.0,0.0,81,0.00,,,0.00,WUHU21623XXSP,2013-03-09 12:25:00,
2013-03-09 04:30:00,43.4,38.0,30.12,ENE,67,0.0,0.0,81,0.00,,,0.00,WUHU21623XXSP,2013-03-09 12:30:00,
2013-03-09 04:35:00,43.4,38.0,30.13,ENE,67,0.0,0.0,81,0.00,,,0.00,WUHU21623XXSP,2013-03-09 12:35:00,
2013-03-09 04:40:00,43.2,37.5,30.12,ENE,67,0.0,0.0,80,0.00,,,0.00,WUHU21623XXSP,2013-03-09 12:40:00,
2013-03-09 04:45:00,43.2,37.5,30.12,ENE,67,0.0,0.0,80,0.00,,,0.00,WUHU21623XXSP,2013-03-09 12:45:00,
2013-03-09 04:50:00,42.9,37.2,30.12,ENE,67,0.0,0.0,80,0.00,,,0.00,WUHU21623XXSP,2013-03-09 12:50:00,
2013-03-09 04:55:00,42.7,37.3,30.13,ENE,67,0.0,0.0,81,0.00,,,0.00,WUHU21623XXSP,2013-03-09 12:55:00,
2013-03-09 05:00:00,42.5,37.1,30.13,ENE,67,0.0,0.0,81,0.00,,,0.00,WUHU21623XXSP,2013-03-09 13:00:00,
2013-03-09 05:05:00,42.5,37.1,30.13,ENE,67,0.0,0.0,81,0.00,,,0.00,WUHU21623XXSP,2013-03-09 13:05:00,
2013-03-09 05:10:00,42.2,36.8,30.13,ENE,67,0.0,0.0,81,0.00,,,0.00,WUHU21623XXSP,2013-03-09 13:10:00,
2013-03-09 05:15:00,42.0,36.6,30.14,ENE,67,0.0,0.0,81,0.00,,,0.00,WUHU21623XXSP,2013-03-09 13:15:00,
2013-03-09 05:20:00,41.6,36.5,30.13,ENE,67,0.0,0.0,82,0.00,,,0.00,WUHU21623XXSP,2013-03-09 13:20:00,
2013-03-09 05:25:00,41.6,36.5,30.13,ENE,67,0.0,0.0,82,0.00,,,0.00,WUHU21623XXSP,2013-03-09 13:25:00,
2013-03-09 05:30:00,41.6,36.5,30.13,ENE,67,0.0,0.0,82,0.00,,,0.00,WUHU21623XXSP,2013-03-09 13:30:00,
2013-03-09 05:35:00,41.6,36.5,30.13,ENE,67,0.0,0.0,82,0.00,,,0.00,WUHU21623XXSP,2013-03-09 13:35:00,
2013-03-09 05:40:00,41.4,36.3,30.13,ENE,67,0.0,0.0,82,0.00,,,0.00,WUHU21623XXSP,2013-03-09 13:40:00,
2013-03-09 05:45:00,41.3,36.2,30.13,ENE,67,0.0,0.0,82,0.00,,,0.00,WUHU21623XXSP,2013-03-09 13:45:00,
2013-03-09 05:50:00,41.3,36.2,30.13,ENE,67,0.0,0.0,82,0.00,,,0.00,WUHU21623XXSP,2013-03-09 13:50:00,
2013-03-09 05:55:00,41.4,36.3,30.13,ENE,67,0.0,0.0,82,0.00,,,0.00,WUHU21623XXSP,2013-03-09 13:55:00,
2013-03-09 06:00:00,41.4,36.3,30.14,ENE,67,0.0,0.0,82,0.00,,,0.00,WUHU21623XXSP,2013-03-09 14:00:00,
2013-03-09 06:05:00,41.4,36.3,30.15,ENE,67,0.0,0.0,82,0.00,,,0.00,WUHU21623XXSP,2013-03-09 14:05:00,
2013-03-09 06:10:00,41.4,36.3,30.15,ENE,67,0.0,0.0,82,0.00,,,0.00,WUHU21623XXSP,2013-03-09 14:10:00,
2013-03-09 06:15:00,41.4,36.3,30.15,ENE,67,0.0,0.0,82,0.00,,,0.00,WUHU21623XXSP,2013-03-09 14:15:00,
2013-03-09 06:20:00,41.1,36.0,30.15,ENE,67,0.0,0.0,82,0.00,,,0.00,WUHU21623XXSP,2013-03-09 14:20:00,
2013-03-09 06:25:00,41.1,36.0,30.15,ENE,67,0.0,0.0,82,0.00,,,0.00,WUHU21623XXSP,2013-03-09 14:25:00,
2013-03-09 06:30:00,41.3,36.2,30.15,ENE,67,0.0,0.0,82,0.00,,,0.00,WUHU21623XXSP,2013-03-09 14:30:00,
2013-03-09 06:35:00,41.1,36.0,30.16,ENE,67,0.0,0.0,82,0.00,,,0.00,WUHU21623XXSP,2013-03-09 14:35:00,
2013-03-09 06:40:00,40.9,35.8,30.16,ENE,67,0.0,0.0,82,0.00,,,0.00,WUHU21623XXSP,2013-03-09 14:40:00,
2013-03-09 06:45:00,40.9,35.5,30.16,ENE,67,0.0,0.0,81,0.00,,,0.00,WUHU21623XXSP,2013-03-09 14:45:00,
2013-03-09 06:50:00,40.7,35.3,30.17,ENE,67,0.0,0.0,81,0.00,,,0.00,WUHU21623XXSP,2013-03-09 14:50:00,
2013-03-09 06:55:00,40.7,35.3,30.17,ENE,67,0.0,0.0,81,0.00,,,0.00,WUHU21623XXSP,2013-03-09 14:55:00,
2013-03-09 07:00:00,40.9,35.5,30.17,ENE,67,0.0,0.0,81,0.00,,,0.00,WUHU21623XXSP,2013-03-09 15:00:00,
2013-03-09 07:05:00,40.9,35.8,30.18,ENE,67,0.0,0.0,82,0.00,,,0.00,WUHU21623XXSP,2013-03-09 15:05:00,
2013-03-09 07:10:00,41.1,36.0,30.18,ENE,67,0.0,0.0,82,0.00,,,0.00,WUHU21623XXSP,2013-03-09 15:10:00,
2013-03-09 07:15:00,41.1,36.0,30.18,ENE,67,0.0,0.0,82,0.00,,,0.00,WUHU21623XXSP,2013-03-09 15:15:00,
2013-03-09 07:20:00,41.1,36.0,30.19,ENE,67,0.0,0.0,82,0.00,,,0.00,WUHU21623XXSP,2013-03-09 15:20:00,
2013-03-09 07:25:00,41.4,36.3,30.19,ENE,67,0.0,0.0,82,0.00,,,0.00,WUHU21623XXSP,2013-03-09 15:25:00,
2013-03-09 07:30:00,41.6,36.5,30.19,ENE,67,0.0,0.0,82,0.00,,,0.00,WUHU21623XXSP,2013-03-09 15:30:00,
2013-03-09 07:35:00,42.0,37.2,30.20,ENE,67,0.0,0.0,83,0.00,,,0.00,WUHU21623XXSP,2013-03-09 15:35:00,
2013-03-09 07:40:00,42.3,37.5,30.20,NNE,22,0.0,0.0,83,0.00,,,0.00,WUHU21623XXSP,2013-03-09 15:40:00,
2013-03-09 07:45:00,42.5,37.7,30.20,WNW,292,0.0,0.0,83,0.00,,,0.00,WUHU21623XXSP,2013-03-09 15:45:00,
2013-03-09 07:50:00,43.2,38.4,30.20,North,0,0.0,0.0,83,0.00,,,0.00,WUHU21623XXSP,2013-03-09 15:50:00,
2013-03-09 07:55:00,43.4,38.3,30.20,NW,315,0.0,0.0,82,0.00,,,0.00,WUHU21623XXSP,2013-03-09 15:55:00,
2013-03-09 08:00:00,43.8,38.7,30.20,NNW,337,0.0,2.8,82,0.00,,,0.00,WUHU21623XXSP,2013-03-09 16:00:00,
2013-03-09 08:05:00,44.1,39.0,30.21,WNW,292,5.0,5.0,82,0.00,,,0.00,WUHU21623XXSP,2013-03-09 16:05:00,
2013-03-09 08:10:00,44.3,39.2,30.21,WNW,292,0.0,5.0,82,0.00,,,0.00,WUHU21623XXSP,2013-03-09 16:10:00,
2013-03-09 08:15:00,44.5,39.4,30.21,WNW,292,0.0,5.0,82,0.00,,,0.00,WUHU21623XXSP,2013-03-09 16:15:00,
2013-03-09 08:20:00,44.9,39.7,30.21,NNE,22,5.5,5.5,82,0.00,,,0.00,WUHU21623XXSP,2013-03-09 16:20:00,
2013-03-09 08:25:00,45.2,39.7,30.21,West,270,0.0,5.5,81,0.00,,,0.00,WUHU21623XXSP,2013-03-09 16:25:00,
2013-03-09 08:30:00,45.2,39.7,30.22,West,270,0.0,8.5,81,0.00,,,0.00,WUHU21623XXSP,2013-03-09 16:30:00,
2013-03-09 08:35:00,45.6,40.1,30.22,West,270,0.0,8.5,81,0.00,,,0.00,WUHU21623XXSP,2013-03-09 16:35:00,
2013-03-09 08:40:00,46.1,40.3,30.23,NNW,337,0.0,6.8,80,0.00,,,0.00,WUHU21623XXSP,2013-03-09 16:40:00,
2013-03-09 08:45:00,46.1,40.0,30.23,NNE,22,7.8,7.8,79,0.00,,,0.00,WUHU21623XXSP,2013-03-09 16:45:00,
2013-03-09 08:50:00,46.3,40.2,30.23,North,0,0.0,7.8,79,0.00,,,0.00,WUHU21623XXSP,2013-03-09 16:50:00,
2013-03-09 08:55:00,46.7,40.6,30.23,WNW,292,0.0,5.5,79,0.00,,,0.00,WUHU21623XXSP,2013-03-09 16:55:00,
2013-03-09 09:00:00,47.0,40.9,30.23,West,270,0.0,10.0,79,0.00,,,0.00,WUHU21623XXSP,2013-03-09 17:00:00,
2013-03-09 09:05:00,47.2,40.7,30.23,WNW,292,0.0,10.0,78,0.00,,,0.00,WUHU21623XXSP,2013-03-09 17:05:00,
2013-03-09 09:10:00,47.6,41.1,30.23,WNW,292,0.0,9.5,78,0.00,,,0.00,WUHU21623XXSP,2013-03-09 17:10:00,
2013-03-09 09:15:00,47.7,40.9,30.23,NW,315,0.0,9.5,77,0.00,,,0.00,WUHU21623XXSP,2013-03-09 17:15:00,
2013-03-09 09:20:00,48.1,41.3,30.23,WNW,292,0.0,10.8,77,0.00,,,0.00,WUHU21623XXSP,2013-03-09 17:20:00,
2013-03-09 09:25:00,48.5,41.3,30.23,NW,315,5.0,10.8,76,0.00,,,0.00,WUHU21623XXSP,2013-03-09 17:25:00,
2013-03-09 09:30:00,48.8,41.3,30.23,NW,315,10.8,15.8,75,0.00,,,0.00,WUHU21623XXSP,2013-03-09 17:30:00,
2013-03-09 09:35:00,49.2,41.7,30.23,WNW,292,12.3,15.8,75,0.00,,,0.00,WUHU21623XXSP,2013-03-09 17:35:00,
2013-03-09 09:40:00,49.4,41.5,30.23,WSW,247,0.0,12.8,74,0.00,,,0.00,WUHU21623XXSP,2013-03-09 17:40:00,
2013-03-09 09:45:00,50.1,42.2,30.23,WNW,292,6.3,21.3,74,0.00,,,0.00,WUHU21623XXSP,2013-03-09 17:45:00,
2013-03-09 09:50:00,50.4,41.8,30.23,West,270,5.0,21.3,72,0.00,,,0.00,WUHU21623XXSP,2013-03-09 17:50:00,
2013-03-09 09:55:00,50.6,41.6,30.23,North,0,9.5,12.8,71,0.00,,,0.00,WUHU21623XXSP,2013-03-09 17:55:00,
2013-03-09 10:00:00,50.8,42.2,30.23,NNE,22,7.3,12.8,72,0.00,,,0.00,WUHU21623XXSP,2013-03-09 18:00:00,
2013-03-09 10:05:00,51.3,42.0,30.23,WNW,292,0.0,16.3,70,0.00,,,0.00,WUHU21623XXSP,2013-03-09 18:05:00,
2013-03-09 10:10:00,51.7,42.3,30.23,WNW,292,0.0,16.3,70,0.00,,,0.00,WUHU21623XXSP,2013-03-09 18:10:00,
2013-03-09 10:15:00,52.2,42.4,30.23,North,0,0.0,13.5,69,0.00,,,0.00,WUHU21623XXSP,2013-03-09 18:15:00,
2013-03-09 10:20:00,52.8,42.6,30.23,NE,45,0.0,16.8,68,0.00,,,0.00,WUHU21623XXSP,2013-03-09 18:20:00,
2013-03-09 10:25:00,53.3,42.7,30.23,SW,225,0.0,16.8,67,0.00,,,0.00,WUHU21623XXSP,2013-03-09 18:25:00,
2013-03-09 10:30:00,54.0,42.6,30.23,NW,315,5.0,7.8,65,0.00,,,0.00,WUHU21623XXSP,2013-03-09 18:30:00,
2013-03-09 10:35:00,54.8,43.4,30.23,WNW,292,0.0,10.0,65,0.00,,,0.00,WUHU21623XXSP,2013-03-09 18:35:00,
2013-03-09 10:40:00,55.3,43.5,30.23,WNW,292,0.0,10.0,64,0.00,,,0.00,WUHU21623XXSP,2013-03-09 18:40:00,
2013-03-09 10:45:00,56.0,43.3,30.23,WNW,292,0.0,6.8,62,0.00,,,0.00,WUHU21623XXSP,2013-03-09 18:45:00,
2013-03-09 10:50:00,56.7,43.5,30.22,NNW,337,6.3,18.0,61,0.00,,,0.00,WUHU21623XXSP,2013-03-09 18:50:00,
2013-03-09 10:55:00,57.5,43.8,30.22,WNW,292,7.3,18.0,60,0.00,,,0.00,WUHU21623XXSP,2013-03-09 18:55:00,
2013-03-09 11:00:00,57.8,41.8,30.23,NE,45,26.3,26.3,55,0.00,,,0.00,WUHU21623XXSP,2013-03-09 19:00:00,
2013-03-09 11:05:00,58.4,42.8,30.23,WNW,292,0.0,26.3,56,0.00,,,0.00,WUHU21623XXSP,2013-03-09 19:05:00,
2013-03-09 11:10:00,59.3,42.7,30.23,West,270,0.0,26.3,54,0.00,,,0.00,WUHU21623XXSP,2013-03-09 19:10:00,
2013-03-09 11:15:00,59.6,43.0,30.23,NNW,337,3.3,15.0,54,0.00,,,0.00,WUHU21623XXSP,2013-03-09 19:15:00,
2013-03-09 11:20:00,60.0,42.9,30.23,WNW,292,6.8,14.5,53,0.00,,,0.00,WUHU21623XXSP,2013-03-09 19:20:00,
2013-03-09 11:25:00,60.7,44.0,30.23,NNE,22,11.8,19.0,54,0.00,,,0.00,WUHU21623XXSP,2013-03-09 19:25:00,
2013-03-09 11:30:00,60.9,44.2,30.23,NW,315,9.0,19.0,54,0.00,,,0.00,WUHU21623XXSP,2013-03-09 19:30:00,
2013-03-09 11:35:00,60.9,42.7,30.23,WNW,292,7.8,28.5,51,0.00,,,0.00,WUHU21623XXSP,2013-03-09 19:35:00,
2013-03-09 11:40:00,61.1,42.9,30.23,WNW,292,5.0,28.5,51,0.00,,,0.00,WUHU21623XXSP,2013-03-09 19:40:00,
2013-03-09 11:45:00,61.6,42.8,30.23,NE,45,7.3,28.0,50,0.00,,,0.00,WUHU21623XXSP,2013-03-09 19:45:00,
2013-03-09 11:50:00,62.3,43.4,30.23,NNE,22,12.3,28.0,50,0.00,,,0.00,WUHU21623XXSP,2013-03-09 19:50:00,
2013-03-09 11:55:00,63.0,42.4,30.23,West,270,2.8,21.8,47,0.00,,,0.00,WUHU21623XXSP,2013-03-09 19:55:00,
2013-03-09 12:00:00,63.6,42.4,30.23,West,270,6.3,29.8,46,0.00,,,0.00,WUHU21623XXSP,2013-03-09 20:00:00,
2013-03-09 12:05:00,63.9,41.5,30.23,NW,315,0.0,29.8,44,0.00,,,0.00,WUHU21623XXSP,2013-03-09 20:05:00,
2013-03-09 12:10:00,64.1,42.3,30.22,WNW,292,4.0,29.0,45,0.00,,,0.00,WUHU21623XXSP,2013-03-09 20:10:00,
2013-03-09 12:15:00,64.8,41.7,30.22,NNW,337,6.3,29.0,43,0.00,,,0.00,WUHU21623XXSP,2013-03-09 20:15:00,
2013-03-09 12:20:00,65.4,42.2,30.22,SSW,202,5.0,26.8,43,0.00,,,0.00,WUHU21623XXSP,2013-03-09 20:20:00,
2013-03-09 12:25:00,65.2,41.4,30.22,WNW,292,0.0,20.3,42,0.00,,,0.00,WUHU21623XXSP,2013-03-09 20:25:00,
2013-03-09 12:30:00,65.9,42.1,30.22,NNW,337,11.8,21.8,42,0.00,,,0.00,WUHU21623XXSP,2013-03-09 20:30:00,
2013-03-09 12:35:00,66.1,41.6,30.22,NW,315,5.5,30.3,41,0.00,,,0.00,WUHU21623XXSP,2013-03-09 20:35:00,
2013-03-09 12:40:00,66.1,42.2,30.22,North,0,5.5,30.3,42,0.00,,,0.00,WUHU21623XXSP,2013-03-09 20:40:00,
2013-03-09 12:45:00,66.6,42.7,30.21,SSW,202,2.8,16.3,42,0.00,,,0.00,WUHU21623XXSP,2013-03-09 20:45:00,
2013-03-09 12:50:00,67.0,41.1,30.21,West,270,11.8,21.3,39,0.00,,,0.00,WUHU21623XXSP,2013-03-09 20:50:00,
2013-03-09 12:55:00,67.4,40.0,30.21,West,270,7.8,27.5,37,0.00,,,0.00,WUHU21623XXSP,2013-03-09 20:55:00,
2013-03-09 13:00:00,67.4,38.6,30.21,West,270,9.5,27.5,35,0.00,,,0.00,WUHU21623XXSP,2013-03-09 21:00:00,
2013-03-09 13:05:00,67.4,38.6,30.21,West,270,6.3,24.5,35,0.00,,,0.00,WUHU21623XXSP,2013-03-09 21:05:00,
2013-03-09 13:10:00,67.7,38.1,30.21,NE,45,10.0,20.3,34,0.00,,,0.00,WUHU21623XXSP,2013-03-09 21:10:00,
2013-03-09 13:15:00,67.5,37.2,30.21,North,0,12.8,19.0,33,0.00,,,0.00,WUHU21623XXSP,2013-03-09 21:15:00,
2013-03-09 13:20:00,67.9,36.8,30.21,NNE,22,1.8,23.0,32,0.00,,,0.00,WUHU21623XXSP,2013-03-09 21:20:00,
2013-03-09 13:25:00,68.4,35.6,30.21,WNW,292,19.0,45.8,30,0.00,,,0.00,WUHU21623XXSP,2013-03-09 21:25:00,
2013-03-09 13:30:00,67.9,35.1,30.21,West,270,10.8,45.8,30,0.00,,,0.00,WUHU21623XXSP,2013-03-09 21:30:00,
2013-03-09 13:35:00,68.1,36.1,30.21,WNW,292,11.8,24.0,31,0.00,,,0.00,WUHU21623XXSP,2013-03-09 21:35:00,
2013-03-09 13:40:00,68.6,36.6,30.21,WSW,247,28.0,28.0,31,0.00,,,0.00,WUHU21623XXSP,2013-03-09 21:40:00,
2013-03-09 13:45:00,68.6,36.6,30.21,NNW,337,9.5,28.0,31,0.00,,,0.00,WUHU21623XXSP,2013-03-09 21:45:00,
2013-03-09 13:50:00,69.0,35.2,30.20,ENE,67,20.3,20.3,29,0.00,,,0.00,WUHU21623XXSP,2013-03-09 21:50:00,
2013-03-09 13:55:00,68.6,34.9,30.20,WNW,292,0.0,20.3,29,0.00,,,0.00,WUHU21623XXSP,2013-03-09 21:55:00,
2013-03-09 14:00:00,69.0,35.2,30.20,WSW,247,0.0,20.8,29,0.00,,,0.00,WUHU21623XXSP,2013-03-09 22:00:00,
2013-03-09 14:05:00,69.0,35.2,30.20,WNW,292,14.0,24.5,29,0.00,,,0.00,WUHU21623XXSP,2013-03-09 22:05:00,
2013-03-09 14:10:00,68.6,34.9,30.20,West,270,17.3,24.5,29,0.00,,,0.00,WUHU21623XXSP,2013-03-09 22:10:00,
2013-03-09 14:15:00,68.4,34.7,30.20,WSW,247,16.8,18.5,29,0.00,,,0.00,WUHU21623XXSP,2013-03-09 22:15:00,
2013-03-09 14:20:00,68.4,35.6,30.20,NW,315,12.8,22.3,30,0.00,,,0.00,WUHU21623XXSP,2013-03-09 22:20:00,
2013-03-09 14:25:00,68.4,34.7,30.20,NW,315,11.8,23.0,29,0.00,,,0.00,WUHU21623XXSP,2013-03-09 22:25:00,
2013-03-09 14:30:00,68.1,34.5,30.20,WNW,292,12.8,23.0,29,0.00,,,0.00,WUHU21623XXSP,2013-03-09 22:30:00,
2013-03-09 14:35:00,68.3,33.8,30.20,NW,315,0.0,14.0,28,0.00,,,0.00,WUHU21623XXSP,2013-03-09 22:35:00,
2013-03-09 14:40:00,67.7,32.3,30.20,West,270,0.0,18.5,27,0.00,,,0.00,WUHU21623XXSP,2013-03-09 22:40:00,
2013-03-09 14:45:00,67.5,31.2,30.20,West,270,9.0,27.5,26,0.00,,,0.00,WUHU21623XXSP,2013-03-09 22:45:00,
2013-03-09 14:50:00,67.7,33.2,30.20,North,0,0.0,27.5,28,0.00,,,0.00,WUHU21623XXSP,2013-03-09 22:50:00,
2013-03-09 14:55:00,67.5,33.1,30.20,West,270,19.5,19.5,28,0.00,,,0.00,WUHU21623XXSP,2013-03-09 22:55:00,
2013-03-09 15:00:00,67.5,33.1,30.20,WSW,247,14.0,20.3,28,0.00,,,0.00,WUHU21623XXSP,2013-03-09 23:00:00,
2013-03-09 15:05:00,67.4,31.2,30.20,WSW,247,0.0,20.3,26,0.00,,,0.00,WUHU21623XXSP,2013-03-09 23:05:00,
2013-03-09 15:10:00,67.2,32.8,30.20,West,270,8.5,22.3,28,0.00,,,0.00,WUHU21623XXSP,2013-03-09 23:10:00,
2013-03-09 15:15:00,67.0,31.7,30.20,WNW,292,10.0,22.3,27,0.00,,,0.00,WUHU21623XXSP,2013-03-09 23:15:00,
2013-03-09 15:20:00,66.8,31.6,30.20,NW,315,13.5,27.5,27,0.00,,,0.00,WUHU21623XXSP,2013-03-09 23:20:00,
2013-03-09 15:25:00,66.8,32.5,30.19,SW,225,0.0,27.5,28,0.00,,,0.00,WUHU21623XXSP,2013-03-09 23:25:00,
2013-03-09 15:30:00,66.8,31.6,30.19,NW,315,5.0,19.0,27,0.00,,,0.00,WUHU21623XXSP,2013-03-09 23:30:00,
2013-03-09 15:35:00,66.8,31.6,30.20,WNW,292,5.5,24.5,27,0.00,,,0.00,WUHU21623XXSP,2013-03-09 23:35:00,
2013-03-09 15:40:00,66.8,32.5,30.20,NW,315,6.8,24.5,28,0.00,,,0.00,WUHU21623XXSP,2013-03-09 23:40:00,
2013-03-09 15:45:00,67.0,33.5,30.20,NW,315,9.0,22.3,29,0.00,,,0.00,WUHU21623XXSP,2013-03-09 23:45:00,
2013-03-09 15:50:00,67.0,32.6,30.20,NE,45,4.0,19.0,28,0.00,,,0.00,WUHU21623XXSP,2013-03-09 23:50:00,
2013-03-09 15:55:00,66.8,33.3,30.20,West,270,15.0,19.0,29,0.00,,,0.00,WUHU21623XXSP,2013-03-09 23:55:00,
2013-03-09 16:00:00,66.8,33.3,30.20,West,270,7.8,15.8,29,0.00,,,0.00,WUHU21623XXSP,2013-03-10 00:00:00,
2013-03-09 16:05:00,67.0,33.5,30.20,West,270,6.3,14.5,29,0.00,,,0.00,WUHU21623XXSP,2013-03-10 00:05:00,
2013-03-09 16:10:00,66.8,33.3,30.19,WNW,292,0.0,19.0,29,0.00,,,0.00,WUHU21623XXSP,2013-03-10 00:10:00,
2013-03-09 16:15:00,66.8,33.3,30.19,NNW,337,0.0,19.0,29,0.00,,,0.00,WUHU21623XXSP,2013-03-10 00:15:00,
2013-03-09 16:20:00,66.8,33.3,30.19,SW,225,24.5,26.8,29,0.00,,,0.00,WUHU21623XXSP,2013-03-10 00:20:00,
2013-03-09 16:25:00,66.8,32.5,30.19,WNW,292,7.3,26.8,28,0.00,,,0.00,WUHU21623XXSP,2013-03-10 00:25:00,
2013-03-09 16:30:00,66.8,33.3,30.19,WNW,292,0.0,24.5,29,0.00,,,0.00,WUHU21623XXSP,2013-03-10 00:30:00,
2013-03-09 16:35:00,66.8,33.3,30.19,West,270,11.3,23.0,29,0.00,,,0.00,WUHU21623XXSP,2013-03-10 00:35:00,
2013-03-09 16:40:00,66.8,33.3,30.19,WSW,247,0.0,14.0,29,0.00,,,0.00,WUHU21623XXSP,2013-03-10 00:40:00,
2013-03-09 16:45:00,66.6,32.3,30.19,WSW,247,14.0,23.5,28,0.00,,,0.00,WUHU21623XXSP,2013-03-10 00:45:00,
2013-03-09 16:50:00,66.3,32.9,30.19,West,270,10.0,23.5,29,0.00,,,0.00,WUHU21623XXSP,2013-03-10 00:50:00,
2013-03-09 16:55:00,66.3,32.0,30.20,West,270,9.0,24.5,28,0.00,,,0.00,WUHU21623XXSP,2013-03-10 00:55:00,
2013-03-09 17:00:00,66.1,31.9,30.20,WNW,292,1.8,24.5,28,0.00,,,0.00,WUHU21623XXSP,2013-03-10 01:00:00,
2013-03-09 17:05:00,66.1,31.0,30.20,West,270,9.5,21.3,27,0.00,,,0.00,WUHU21623XXSP,2013-03-10 01:05:00,
2013-03-09 17:11:00,65.9,30.8,30.20,WNW,292,11.3,21.3,27,0.00,,,0.00,WUHU21623XXSP,2013-03-10 01:11:00,
2013-03-09 17:16:00,65.7,31.5,30.20,NNW,337,7.8,20.8,28,0.00,,,0.00,WUHU21623XXSP,2013-03-10 01:16:00,
2013-03-09 17:21:00,65.7,32.4,30.20,West,270,0.0,12.3,29,0.00,,,0.00,WUHU21623XXSP,2013-03-10 01:21:00,
2013-03-09 17:26:00,65.6,32.3,30.20,NW,315,0.0,11.8,29,0.00,,,0.00,WUHU21623XXSP,2013-03-10 01:26:00,
2013-03-09 17:31:00,65.6,32.3,30.20,WNW,292,6.8,12.3,29,0.00,,,0.00,WUHU21623XXSP,2013-03-10 01:31:00,
2013-03-09 17:36:00,65.0,31.8,30.21,WNW,292,0.0,12.8,29,0.00,,,0.00,WUHU21623XXSP,2013-03-10 01:36:00,
2013-03-09 17:41:00,65.0,31.8,30.21,West,270,1.8,12.8,29,0.00,,,0.00,WUHU21623XXSP,2013-03-10 01:41:00,
2013-03-09 17:46:00,64.8,32.4,30.21,NW,315,0.0,9.5,30,0.00,,,0.00,WUHU21623XXSP,2013-03-10 01:46:00,
2013-03-09 17:51:00,64.5,33.0,30.21,WSW,247,5.0,10.0,31,0.00,,,0.00,WUHU21623XXSP,2013-03-10 01:51:00,
2013-03-09 17:56:00,64.3,32.8,30.22,West,270,0.0,10.0,31,0.00,,,0.00,WUHU21623XXSP,2013-03-10 01:56:00,
2013-03-09 18:01:00,63.8,33.2,30.21,WNW,292,0.0,3.3,32,0.00,,,0.00,WUHU21623XXSP,2013-03-10 02:01:00,
2013-03-09 18:06:00,63.6,33.0,30.22,WNW,292,0.0,8.5,32,0.00,,,0.00,WUHU21623XXSP,2013-03-10 02:06:00,
2013-03-09 18:11:00,63.4,33.6,30.23,WNW,292,0.0,8.5,33,0.00,,,0.00,WUHU21623XXSP,2013-03-10 02:11:00,
2013-03-09 18:16:00,63.2,33.4,30.22,WNW,292,0.0,5.5,33,0.00,,,0.00,WUHU21623XXSP,2013-03-10 02:16:00,
2013-03-09 18:21:00,62.7,33.7,30.22,NW,315,0.0,5.5,34,0.00,,,0.00,WUHU21623XXSP,2013-03-10 02:21:00,
2013-03-09 18:26:00,62.5,32.8,30.22,West,270,0.0,8.5,33,0.00,,,0.00,WUHU21623XXSP,2013-03-10 02:26:00,
2013-03-09 18:31:00,62.1,33.2,30.22,WNW,292,0.0,8.5,34,0.00,,,0.00,WUHU21623XXSP,2013-03-10 02:31:00,
2013-03-09 18:36:00,61.8,33.6,30.22,WNW,292,3.3,8.5,35,0.00,,,0.00,WUHU21623XXSP,2013-03-10 02:36:00,
2013-03-09 18:41:00,61.6,33.5,30.23,WNW,292,0.0,8.5,35,0.00,,,0.00,WUHU21623XXSP,2013-03-10 02:41:00,
2013-03-09 18:46:00,61.4,33.3,30.23,WNW,292,0.0,0.0,35,0.00,,,0.00,WUHU21623XXSP,2013-03-10 02:46:00,
2013-03-09 18:51:00,61.2,33.8,30.23,WNW,292,0.0,0.0,36,0.00,,,0.00,WUHU21623XXSP,2013-03-10 02:51:00,
2013-03-09 18:56:00,60.9,33.6,30.23,NNW,337,0.0,2.8,36,0.00,,,0.00,WUHU21623XXSP,2013-03-10 02:56:00,
2013-03-09 19:01:00,60.5,34.6,30.23,NNW,337,0.0,5.5,38,0.00,,,0.00,WUHU21623XXSP,2013-03-10 03:01:00,
2013-03-09 19:06:00,60.0,34.8,30.23,NW,315,0.0,5.5,39,0.00,,,0.00,WUHU21623XXSP,2013-03-10 03:06:00,
2013-03-09 19:11:00,59.4,34.9,30.23,NW,315,0.0,0.0,40,0.00,,,0.00,WUHU21623XXSP,2013-03-10 03:11:00,
2013-03-09 19:16:00,58.7,34.3,30.23,NW,315,0.0,0.0,40,0.00,,,0.00,WUHU21623XXSP,2013-03-10 03:16:00,
2013-03-09 19:21:00,57.8,34.1,30.23,NNE,22,0.0,0.0,41,0.00,,,0.00,WUHU21623XXSP,2013-03-10 03:21:00,
2013-03-09 19:26:00,57.3,34.9,30.23,NNE,22,0.0,0.0,43,0.00,,,0.00,WUHU21623XXSP,2013-03-10 03:26:00,
2013-03-09 19:31:00,56.9,34.5,30.23,NNE,22,0.0,0.0,43,0.00,,,0.00,WUHU21623XXSP,2013-03-10 03:31:00,
2013-03-09 19:36:00,56.4,34.6,30.23,NNE,22,0.0,0.0,44,0.00,,,0.00,WUHU21623XXSP,2013-03-10 03:36:00,
2013-03-09 19:41:00,56.7,34.3,30.23,NE,45,0.0,0.0,43,0.00,,,0.00,WUHU21623XXSP,2013-03-10 03:41:00,
2013-03-09 19:46:00,56.7,34.9,30.23,NE,45,0.0,0.0,44,0.00,,,0.00,WUHU21623XXSP,2013-03-10 03:46:00,
2013-03-09 19:51:00,56.4,34.6,30.23,NE,45,0.0,0.0,44,0.00,,,0.00,WUHU21623XXSP,2013-03-10 03:51:00,
2013-03-09 19:56:00,56.0,34.3,30.23,NE,45,0.0,0.0,44,0.00,,,0.00,WUHU21623XXSP,2013-03-10 03:56:00,
2013-03-09 20:01:00,55.8,34.7,30.23,NE,45,0.0,0.0,45,0.00,,,0.00,WUHU21623XXSP,2013-03-10 04:01:00,
2013-03-09 20:06:00,55.5,34.4,30.23,ENE,67,0.0,0.0,45,0.00,,,0.00,WUHU21623XXSP,2013-03-10 04:06:00,
2013-03-09 20:11:00,55.1,34.6,30.23,ENE,67,0.0,0.0,46,0.00,,,0.00,WUHU21623XXSP,2013-03-10 04:11:00,
2013-03-09 20:16:00,54.9,34.4,30.23,ENE,67,0.0,0.0,46,0.00,,,0.00,WUHU21623XXSP,2013-03-10 04:16:00,
2013-03-09 20:21:00,54.6,34.7,30.23,ENE,67,0.0,0.0,47,0.00,,,0.00,WUHU21623XXSP,2013-03-10 04:21:00,
2013-03-09 20:26:00,54.2,34.3,30.23,ENE,67,0.0,0.0,47,0.00,,,0.00,WUHU21623XXSP,2013-03-10 04:26:00,
2013-03-09 20:31:00,54.0,34.2,30.23,NE,45,0.0,0.0,47,0.00,,,0.00,WUHU21623XXSP,2013-03-10 04:31:00,
2013-03-09 20:36:00,54.0,33.6,30.23,ENE,67,0.0,0.0,46,0.00,,,0.00,WUHU21623XXSP,2013-03-10 04:36:00,
2013-03-09 20:41:00,54.0,34.2,30.23,NE,45,0.0,0.0,47,0.00,,,0.00,WUHU21623XXSP,2013-03-10 04:41:00,
2013-03-09 20:46:00,53.7,34.4,30.23,NE,45,0.0,0.0,48,0.00,,,0.00,WUHU21623XXSP,2013-03-10 04:46:00,
2013-03-09 20:51:00,53.0,34.8,30.23,NE,45,0.0,0.0,50,0.00,,,0.00,WUHU21623XXSP,2013-03-10 04:51:00,
2013-03-09 20:56:00,52.8,34.6,30.23,NE,45,0.0,0.0,50,0.00,,,0.00,WUHU21623XXSP,2013-03-10 04:56:00,
2013-03-09 21:00:00,52.4,34.3,30.23,NE,45,0.0,0.0,50,0.00,,,0.00,WUHU21623XXSP,2013-03-10 05:00:00,
2013-03-09 21:05:00,52.2,34.1,30.23,NE,45,0.0,0.0,50,0.00,,,0.00,WUHU21623XXSP,2013-03-10 05:05:00,
2013-03-09 21:10:00,52.2,34.6,30.23,NNW,337,0.0,0.0,51,0.00,,,0.00,WUHU21623XXSP,2013-03-10 05:10:00,
2013-03-09 21:15:00,51.9,34.3,30.23,NNW,337,0.0,0.0,51,0.00,,,0.00,WUHU21623XXSP,2013-03-10 05:15:00,
2013-03-09 21:20:00,51.9,34.8,30.23,NNW,337,0.0,0.0,52,0.00,,,0.00,WUHU21623XXSP,2013-03-10 05:20:00,
2013-03-09 21:25:00,51.3,34.3,30.24,NNW,337,0.0,0.0,52,0.00,,,0.00,WUHU21623XXSP,2013-03-10 05:25:00,
2013-03-09 21:30:00,50.6,34.6,30.24,NE,45,0.0,0.0,54,0.00,,,0.00,WUHU21623XXSP,2013-03-10 05:30:00,
2013-03-09 21:35:00,50.4,34.4,30.24,NE,45,0.0,0.0,54,0.00,,,0.00,WUHU21623XXSP,2013-03-10 05:35:00,
2013-03-09 21:40:00,50.6,34.6,30.25,NE,45,0.0,0.0,54,0.00,,,0.00,WUHU21623XXSP,2013-03-10 05:40:00,
2013-03-09 21:47:00,50.4,34.4,30.25,NE,45,0.0,0.0,54,0.00,,,0.00,WUHU21623XXSP,2013-03-10 05:47:00,
2013-03-09 21:52:00,50.3,34.3,30.25,ENE,67,0.0,0.0,54,0.00,,,0.00,WUHU21623XXSP,2013-03-10 05:52:00,
2013-03-09 21:57:00,50.1,34.1,30.25,ENE,67,0.0,0.0,54,0.00,,,0.00,WUHU21623XXSP,2013-03-10 05:57:00,
2013-03-09 22:02:00,50.1,34.1,30.25,ENE,67,0.0,0.0,54,0.00,,,0.00,WUHU21623XXSP,2013-03-10 06:02:00,
2013-03-09 22:07:00,50.1,34.1,30.25,ENE,67,0.0,0.0,54,0.00,,,0.00,WUHU21623XXSP,2013-03-10 06:07:00,
2013-03-09 22:12:00,50.1,34.1,30.24,North,0,0.0,0.0,54,0.00,,,0.00,WUHU21623XXSP,2013-03-10 06:12:00,
2013-03-09 22:17:00,50.4,33.9,30.25,WNW,292,0.0,0.0,53,0.00,,,0.00,WUHU21623XXSP,2013-03-10 06:17:00,
2013-03-09 22:22:00,50.3,34.3,30.25,WNW,292,0.0,0.0,54,0.00,,,0.00,WUHU21623XXSP,2013-03-10 06:22:00,
2013-03-09 22:27:00,49.5,34.0,30.25,North,0,0.0,0.0,55,0.00,,,0.00,WUHU21623XXSP,2013-03-10 06:27:00,
2013-03-09 22:32:00,48.8,33.8,30.25,ENE,67,5.0,5.0,56,0.00,,,0.00,WUHU21623XXSP,2013-03-10 06:32:00,
2013-03-09 22:39:00,49.2,33.8,30.25,East,90,0.0,7.8,55,0.00,,,0.00,WUHU21623XXSP,2013-03-10 06:39:00,
2013-03-09 22:44:00,49.5,33.6,30.26,NW,315,0.0,2.8,54,0.00,,,0.00,WUHU21623XXSP,2013-03-10 06:44:00,
2013-03-09 22:49:00,49.5,34.0,30.25,NNE,22,0.0,0.0,55,0.00,,,0.00,WUHU21623XXSP,2013-03-10 06:49:00,
2013-03-09 22:54:00,49.5,34.0,30.25,NE,45,0.0,0.0,55,0.00,,,0.00,WUHU21623XXSP,2013-03-10 06:54:00,
2013-03-09 22:59:00,49.4,33.9,30.26,NE,45,0.0,0.0,55,0.00,,,0.00,WUHU21623XXSP,2013-03-10 06:59:00,
2013-03-09 23:04:00,49.2,33.8,30.26,North,0,0.0,0.0,55,0.00,,,0.00,WUHU21623XXSP,2013-03-10 07:04:00,
2013-03-09 23:09:00,48.8,33.4,30.26,East,90,0.0,7.3,55,0.00,,,0.00,WUHU21623XXSP,2013-03-10 07:09:00,
2013-03-09 23:14:00,49.2,33.8,30.26,North,0,0.0,7.3,55,0.00,,,0.00,WUHU21623XXSP,2013-03-10 07:14:00,
2013-03-09 23:19:00,49.2,33.8,30.25,East,90,0.0,0.0,55,0.00,,,0.00,WUHU21623XXSP,2013-03-10 07:19:00,
2013-03-09 23:24:00,49.4,33.5,30.26,ENE,67,0.0,0.0,54,0.00,,,0.00,WUHU21623XXSP,2013-03-10 07:24:00,
2013-03-09 23:29:00,49.2,33.3,30.25,East,90,2.8,3.3,54,0.00,,,0.00,WUHU21623XXSP,2013-03-10 07:29:00,
2013-03-09 23:34:00,49.2,33.3,30.25,ESE,112,3.3,5.0,54,0.00,,,0.00,WUHU21623XXSP,2013-03-10 07:34:00,
2013-03-09 23:39:00,49.2,32.8,30.25,ENE,67,3.3,5.0,53,0.00,,,0.00,WUHU21623XXSP,2013-03-10 07:39:00,
2013-03-09 23:44:00,48.8,32.4,30.25,ESE,112,4.5,6.8,53,0.00,,,0.00,WUHU21623XXSP,2013-03-10 07:44:00,
2013-03-09 23:49:00,48.8,32.4,30.26,ENE,67,0.0,6.8,53,0.00,,,0.00,WUHU21623XXSP,2013-03-10 07:49:00,
2013-03-09 23:54:00,48.8,32.9,30.26,East,90,0.0,5.5,54,0.00,,,0.00,WUHU21623XXSP,2013-03-10 07:54:00,
2013-03-09 23:59:00,48.8,32.4,30.26,East,90,0.0,5.0,53,0.00,,,0.00,WUHU21623XXSP,2013-03-10 07:59:00,